User: anonymous   Login
Location: Unspecified
(0.0000°N, 0.0000°E)
Time: 07:42:52
(UTC+00:00)
Language:

MUOS - Orbit

View from above orbital plane
View from above orbital plane
View from above satellite
View from above satellite

Ground track
Ground track

The orbit data is extracted from the following two-line orbital elements,

1 38093U 12009A   18220.57601748 0.00000000  00000-0  00000-0 0    09
2 38093   2.8581 347.3464 0055419 174.3577 185.7189  1.00270000    07
Epoch (UTC): 08 August 2018 13:49:27
Eccentricity: 0.0055419
inclination: 2.8581°
perigee height: 35553 km
apogee height: 36020 km
right ascension of ascending node: 347.3464°
argument of perigee: 174.3577°
revolutions per day: 1.00270000
mean anomaly at epoch: 185.7189°
orbit number at epoch: 0

The dashed part of the orbit path shows where the satellite is in the earth's shadow,  

DLR